STARLINK-35513, 65930

Orbit data source: Space-Track

STARLINK-35513, 65930 is a payload satellite owned by SpaceX/Seattle (US) in LEO that was launched on Wed, 08 Oct 2025 UTC via an FALCON 9 launch vehicle from the Air Force Western Test Range (AFWTR). Payload-class satellites include a variety of spacecraft equipped with specific instruments for various scientific and technological missions. These include communications satellites like Starlink; space stations such as the ISS; scientific satellites like the Hubble; Earth observation satellites from companies like Planet Labs, Umbra, and HawkEye 360; GPS; miniature CubeSats for education and research; and military/defense satellites.

Loading next visibility...
Identifier
65930, 2025-225W
Orbit
LEO
Country
Flag of USUS
Related business
Manufacturer
SpaceX/Seattle
Mission
Operational Commercial Communications
Bus & Motor
STARLINK V2MO, Unknown motor
Mass
575 kg wet, ~530 kg dry
Launch date (UTC)
2025-10-08 (8 months ago)
Launch vehicle
FALCON 9
Launch site
Air Force Western Test Range (AFWTR)
Object type
Payload
Rocket body
Debris
Shape & HBR
Box + 2 Pan, 17.7 m
Radar Cross Section
36.964 m², Large (>1 m²)

Expand to show TLE details & history
Last TLE update: 11 hours ago

TLE from 11 hours ago
0 STARLINK-35513
1 65930U 25225W   26151.28683933  .00050001  00000-0  15185-2 0  9994
2 65930  53.1599 142.0570 0001722  83.3267 276.7931 15.33612280 37058
Epoch: 2026-05-31T06:53Z
TLE epoch observation values (Epoch: 2026-05-31T06:53:02.918Z)
Latitude
-0.00002°
Longitude
150.00414°
Altitude
465.807 km
Speed
7.635 km/s
True Right ascension
09h 28m 13s
True Declination
0° 00' 00"
Sunlit
Object was in daylight at epoch
Visualization orbit readout
Latitude
Unknown
Longitude
Unknown
Altitude
Unknown
Speed
Unknown
Apparent Right ascension
Unknown
Apparent Declination
Unknown
Sunlit
N/A
Visualization observer readout
Local Sidereal Time
03:17:58
Azimuth
Unknown
Elevation
Unknown
Doppler factor
Unknown
Orbital elements
Apogee altitude
466.481 km
Perigee altitude
464.124 km
Semi-major axis
6,843.439 km
Eccentricity
0.00017
Inclination
53.1599°
RAAN
142.057°
Arg. of periapsis
83.3267°
True anomaly
276.77351°
Mean anomaly
276.7931°
Eccentric anomaly
276.7833°
Mean motion
3.83382 °/min
Orbital period
93.9 mins
BSTAR
0.0015185
Loading maneuver chart data...
Computing Atmospheric mass density...
Loading historical data...
Loading historical data...
Loading historical data...
Loading historical data...
Loading historical data...
Loading historical data...
Loading historical data...

Documentation

Showing up to 5 results
|